Location: ?????
(33.6267°N, 35.4675°E)
Time: 03:29:03
(UTC+00:00)

Cosmos 1697 Rocket - Pass Details

Date: 12 November 2019
Orbit: 833 x 842 km, 71.0° (Epoch: 07 December)

Event Time Altitude Azimuth Distance (km) Brightness Sun altitude
Rises 14:52:07 0° 152° (SSE) 3,383 5.7 -3.7°
Reaches altitude 10° 14:55:46 10° 128° (SE) 2,453 4.8 -4.4°
Maximum altitude 14:58:34 14° 98° (E) 2,180 4.3 -5.0°
Drops below altitude 10° 15:01:22 10° 68° (ENE) 2,459 4.4 -5.5°
Enters shadow 15:03:10 - 54° (NE) 2,870 4.9 -5.9°
